, OR

(GMT )
Tillamook

Weather History for KTMK - July, 2013

Change the Weather History Date:

Tuesday, July 2, 2013

  Actual Average Record
Temperature  
Mean Temperature 62 °F -  
Max Temperature 64 °F - - ()
Min Temperature 60 °F - - ()
Degree Days  
Heating Degree Days 3    
Growing Degree Days 12 (Base 50)    
Moisture  
Dew Point 59 °F    
Average Humidity 88    
Maximum Humidity 94    
Minimum Humidity 82    
Precipitation  
Precipitation 0.00 in - - ()
Sea Level Pressure  
Sea Level Pressure 30.09 in    
Wind  
Wind Speed 0 mph (North)    
Max Wind Speed 0 mph    
Max Gust Speed -    
Visibility 10 miles    
Events      
Averages and records for this station are not official NWS values.
T = Trace of Precipitation, MM = Missing Value Source: NWS Daily Summary

Daily Weather History Graph

Daily Weather History Graph

Search for Another Location

Airport or City:

Trip Planner

Search our weather history database for the weather conditions in past years. The results will help you decide how hot, cold, wet, or windy it might be!

Date:

Astronomy

Jul. 02, 2013 Rise Set
Actual Time 6:31 AM MDT 10:06 PM MDT
Civil Twilight 5:53 AM MDT 10:44 PM MDT
Nautical Twilight 5:04 AM MDT 11:34 PM MDT
Astronomical Twilight 3:57 AM MDT 12:40 AM MDT
Moon 2:45 AM MDT (7/2) 5:19 PM MDT (7/2)
Length of Visible Light 16h 50m
Length of Day
15h 35m
Waning Crescent, 26% of the Moon is Illuminated
Jul 2
Waning Crescent
Jul 8
New
Jul 15
First Quarter
Jul 22
Full
Jul 29
Last Quarter

Hourly Weather History & Observations

Time (MDT) Temp. Dew Point Humidity Pressure Visibility Wind Dir Wind Speed Gust Speed Precip Events Conditions
12:15 AM 64.4 °F 59.0 °F 83% 30.08 in 10.0 mi Calm Calm - N/A   Overcast
12:35 AM 62.6 °F 59.0 °F 88% 30.09 in 10.0 mi Calm Calm - N/A   Overcast
12:55 AM 62.6 °F 59.0 °F 88% 30.09 in 10.0 mi Calm Calm - N/A   Overcast
1:15 AM 62.6 °F 59.0 °F 88% 30.10 in 10.0 mi Calm Calm - N/A   Overcast
1:35 AM 62.6 °F 59.0 °F 88% 30.10 in 10.0 mi Calm Calm - N/A   Overcast
1:55 AM 62.6 °F 59.0 °F 88% 30.09 in 10.0 mi Calm Calm - N/A   Overcast
2:15 AM 62.6 °F 59.0 °F 88% 30.08 in 10.0 mi Calm Calm - N/A   Overcast
2:35 AM 62.6 °F 59.0 °F 88% 30.08 in 10.0 mi Calm Calm - N/A   Overcast
2:55 AM 62.6 °F 59.0 °F 88% 30.08 in 10.0 mi Calm Calm - N/A   Overcast
3:15 AM 62.6 °F 59.0 °F 88% 30.08 in 10.0 mi Calm Calm - N/A   Overcast
3:35 AM 62.6 °F 59.0 °F 88% 30.08 in 10.0 mi Calm Calm - N/A   Overcast
3:55 AM 62.6 °F 59.0 °F 88% 30.08 in 10.0 mi Calm Calm - N/A   Overcast
4:15 AM 62.6 °F 59.0 °F 88% 30.08 in 10.0 mi Calm Calm - N/A   Overcast
4:35 AM 62.6 °F 59.0 °F 88% 30.08 in 10.0 mi Calm Calm - N/A   Overcast
4:55 AM 62.6 °F 59.0 °F 88% 30.08 in 10.0 mi Calm Calm - N/A   Overcast
5:15 AM 62.6 °F 59.0 °F 88% 30.08 in 10.0 mi Calm Calm - N/A   Overcast
5:35 AM 62.6 °F 59.0 °F 88% 30.09 in 10.0 mi Calm Calm - N/A   Overcast
5:55 AM 62.6 °F 59.0 °F 88% 30.09 in 10.0 mi Calm Calm - N/A   Overcast
6:15 AM 62.6 °F 59.0 °F 88% 30.09 in 10.0 mi Calm Calm - N/A   Overcast
6:35 AM 62.6 °F 59.0 °F 88% 30.10 in 10.0 mi Calm Calm - N/A   Overcast
6:55 AM 62.6 °F 59.0 °F 88% 30.10 in 10.0 mi Calm Calm - N/A   Overcast
7:15 AM 60.8 °F 57.2 °F 88% 30.10 in 10.0 mi Calm Calm - N/A   Overcast
7:35 AM 60.8 °F 59.0 °F 94% 30.11 in 10.0 mi Calm Calm - N/A   Overcast
8:15 AM 62.6 °F 57.2 °F 82% 30.11 in 10.0 mi Calm Calm - N/A   Overcast
8:35 AM 62.6 °F 57.2 °F 82% 30.11 in 10.0 mi Calm Calm - N/A   Overcast